RH
66 71 73 75 76 74 74 74 72 69 63 56 48 41 37 37 37 38 32 27 29 29 27 25 22 20 20 19 19 18 16 15 15 15 13 12 11 12 13 13 13 14 15 14 13 13 13 12 12 13 14 15
62 67 69 71 73 70 69 68 66 63 59 52 45 39 36 34 34 35 30 28 30 30 28 26 23 22 21 20 20 19 18 17 16 16 15 13 12 12 13 14 15 15 16 16 15 14 14 13 13 13 14 15
59 63 64 66 68 66 63 60 59 60 57 50 45 39 36 33 31 34 32 30 32 30 29 28 25 23 22 22 21 20 19 18 17 17 16 14 13 13 14 15 16 17 17 18 18 16 15 14 14 14 14 15
57 60 60 62 64 62 58 56 58 59 54 50 47 41 37 33 30 33 34 32 33 32 31 30 26 25 23 23 22 21 20 19 19 18 18 16 14 14 15 16 17 18 19 19 20 19 17 16 15 15 15 15
54 57 58 59 59 57 55 56 58 56 54 52 49 44 39 35 30 32 35 34 35 35 33 32 29 27 25 24 24 22 22 21 20 20 20 19 16 15 16 16 18 20 21 22 22 22 21 19 17 17 17 16
50 53 55 56 55 53 53 56 56 55 56 54 50 47 43 37 33 32 35 36 36 37 35 34 31 29 27 26 25 24 23 22 22 22 21 21 19 17 17 17 18 20 22 23 23 24 24 23 21 20 19 18
46 49 51 52 51 50 51 53 54 55 56 53 52 51 47 42 37 33 35 38 38 39 38 37 34 32 30 29 28 27 25 25 24 24 23 23 22 19 18 18 18 19 22 23 24 25 26 26 26 24 22 21
44 45 47 47 48 47 47 50 53 55 54 54 54 55 53 47 41 36 35 38 40 41 41 41 38 36 33 31 31 29 28 27 27 26 26 25 25 23 20 20 20 20 22 25 27 28 29 30 31 30 27 25
42 43 44 44 44 43 43 47 52 55 55 57 57 58 58 53 48 42 36 38 42 43 43 44 42 39 36 34 33 32 30 29 29 28 28 28 28 26 24 22 22 22 24 27 30 32 34 35 36 37 36 32
42 42 43 43 42 41 41 43 50 55 58 62 62 64 64 59 55 49 42 40 44 45 44 45 45 43 40 38 36 35 33 32 32 31 31 31 31 29 27 26 24 24 25 28 31 35 38 40 42 43 44 42
43 43 43 43 41 41 40 42 49 55 60 65 67 69 70 67 63 58 51 46 47 48 46 46 47 46 44 42 40 39 37 35 35 34 34 34 34 33 31 30 28 27 28 30 33 36 39 42 45 47 49 50
47 46 45 44 43 42 41 43 49 56 62 67 70 73 74 73 70 67 61 54 51 50 49 49 49 50 48 46 45 43 41 40 39 39 39 38 38 37 35 35 34 33 33 34 36 38 41 44 46 48 51 53
52 50 48 47 46 44 44 45 50 57 63 70 74 76 78 79 78 75 70 63 57 54 52 51 52 53 52 51 49 47 45 44 44 44 44 44 42 41 40 39 40 40 41 41 42 43 44 46 48 50 53 56
57 55 53 51 49 48 47 46 50 57 64 71 77 80 82 85 85 83 79 71 65 60 56 54 55 56 56 55 53 52 50 49 49 49 50 49 48 46 45 44 46 48 49 50 50 50 50 50 52 53 55 58
61 59 57 56 54 53 51 51 53 58 65 72 78 81 84 89 91 90 87 79 72 68 63 58 58 59 59 58 57 56 55 54 54 54 55 54 53 52 51 51 52 54 57 58 57 57 57 57 58 60 61 62
67 65 63 61 60 59 57 56 57 61 68 74 79 81 84 89 93 93 91 86 79 77 72 62 59 61 62 62 62 61 61 60 59 59 60 60 59 58 58 60 62 64 65 65 64 62 62 63 65 67 68 69
74 73 70 66 65 65 63 63 64 67 73 79 82 84 85 89 93 92 91 89 83 81 78 69 63 62 64 66 67 67 66 66 64 64 65 66 66 65 66 69 71 73 73 72 70 71 72 72 72 72 73 76
77 77 74 71 70 70 68 69 70 73 79 85 88 90 89 90 92 92 91 90 87 84 83 77 69 65 65 69 72 72 71 70 69 69 70 71 72 73 76 79 81 82 80 76 75 78 82 82 81 79 80 83
72 74 74 73 72 72 71 72 75 80 85 90 95 96 95 94 94 92 92 94 91 88 89 86 78 73 72 74 76 76 74 72 71 71 72 73 76 80 84 87 88 87 84 82 82 84 86 87 87 86 86 88
71 74 75 73 72 72 72 73 76 81 87 92 96 99 99 97 97 96 96 98 96 93 95 96 90 85 84 86 85 81 75 70 70 72 75 76 80 84 88 90 88 84 84 86 87 87 87 88 90 91 90 89
74 77 78 77 76 75 73 74 76 78 84 90 95 98 99 98 98 99 100 101 102 101 103 107 104 99 97 97 93 87 79 72 72 75 78 81 85 89 89 87 84 83 84 86 87 86 87 87 88 90 89 89
76 79 81 83 86 84 81 79 78 78 81 87 92 95 98 99 100 101 102 104 105 104 106 111 113 110 105 101 96 89 84 80 79 81 85 90 93 92 88 84 82 81 82 84 85 87 87 88 88 87 86 88
83 81 82 88 94 95 92 88 83 81 82 85 91 96 99 101 103 103 103 104 103 103 107 110 112 110 105 100 94 90 88 88 91 95 100 103 100 93 88 85 81 80 81 83 83 85 86 87 88 86 84 85
95 90 85 86 93 98 98 96 92 87 85 87 93 99 101 103 104 104 104 103 102 103 107 107 105 102 99 96 94 93 94 97 101 105 108 107 102 97 92 88 86 87 87 84 82 83 84 84 84 82 80 79
98 98 95 90 90 94 99 101 100 95 90 89 92 97 101 104 105 105 104 102 99 100 100 100 99 98 99 99 99 100 103 106 107 108 109 108 103 99 97 97 100 99 92 86 85 85 84 82 79 76 75 74
98 101 103 100 95 95 100 104 105 102 97 92 93 96 99 101 103 103 101 96 93 94 95 97 100 102 103 104 105 105 107 108 108 108 108 105 101 100 102 107 108 102 95 91 88 87 86 83 78 74 72 71
103 106 108 107 103 99 100 103 106 107 105 101 98 98 99 99 99 101 99 96 95 97 100 102 104 106 106 106 106 106 106 107 106 106 104 101 101 102 104 108 105 100 97 94 91 91 90 86 82 78 73 70
106 108 109 108 105 102 101 104 107 109 109 108 106 104 102 101 101 101 100 101 103 104 105 107 107 106 106 106 106 106 106 106 105 104 103 102 102 102 103 105 102 100 98 96 96 95 94 91 87 83 76 75
107 108 109 108 107 106 106 107 109 110 109 108 107 107 106 106 106 103 102 105 106 106 107 108 108 107 107 106 104 105 103 103 104 103 104 103 101 102 103 103 101 100 100 99 99 98 97 94 90 85 82 85
103 107 108 107 108 109 109 109 108 109 108 106 106 106 105 106 106 104 103 103 103 106 106 104 106 106 105 104 103 103 102 102 104 102 103 103 100 101 103 102 100 101 101 100 101 101 98 94 90 88 91 97
100 103 105 104 105 107 107 107 107 107 106 106 105 104 102 102 102 103 103 101 101 105 103 102 105 104 102 103 101 102 101 102 105 102 101 102 100 100 101 102 102 101 101 101 102 101 97 94 94 98 103 104
Wind_Speed
72 71 70 69 68 66 64 63 61 60 58 57 56 54 51 47 45 46 46 46 46 45 44 44 43 43 43 42 42 41 41 40 41 41 41 40 40 39 39 39 39 39 39 39 40 40 40 41 41 41 40 40
71 69 69 67 66 65 63 62 60 58 58 57 56 54 51 47 45 45 46 46 46 45 45 45 44 43 43 43 42 42 42 41 41 41 41 41 40 40 40 39 39 39 40 40 40 41 41 42 42 41 41 41
70 69 68 66 65 64 62 61 59 58 57 57 56 54 52 48 46 46 46 47 46 46 45 45 45 44 44 43 43 43 42 42 41 41 41 41 41 40 40 40 40 40 40 41 41 41 42 42 43 43 43 42
69 68 67 65 65 63 62 60 58 58 58 57 56 55 53 50 47 46 47 47 47 47 46 46 45 45 45 44 44 43 43 42 42 42 42 41 41 41 41 41 41 41 41 41 42 42 43 43 44 44 44 44
70 68 67 65 65 63 61 60 59 59 58 57 57 56 54 51 49 47 47 47 47 47 47 46 46 46 46 45 45 44 43 43 42 42 42 42 42 41 41 41 41 41 41 42 42 43 44 44 45 45 45 45
70 68 67 66 65 63 61 61 60 59 58 58 58 57 55 53 50 48 48 48 48 47 47 47 47 47 46 46 45 45 44 44 43 42 42 42 42 42 42 42 42 42 42 42 42 43 44 45 46 46 46 47
71 69 68 67 65 64 62 62 60 59 59 59 58 57 56 54 52 50 49 48 48 48 48 48 48 47 47 46 46 45 45 44 43 43 43 43 43 43 43 43 43 43 43 43 43 44 44 45 46 47 47 48
72 70 69 67 66 65 63 62 61 61 60 59 59 58 57 56 54 52 50 49 49 49 49 48 48 48 47 47 46 46 45 45 44 44 43 44 44 44 44 44 44 43 43 44 44 45 45 46 47 47 48 48
73 71 69 68 67 65 64 63 62 62 61 60 60 59 59 57 56 54 52 51 50 50 49 49 49 49 48 48 47 47 46 45 45 44 44 44 44 45 44 44 44 44 44 44 45 45 46 46 47 48 48 49
74 72 70 69 68 66 65 64 63 62 62 61 61 60 60 59 57 56 54 53 51 51 50 50 49 49 49 48 48 47 46 46 45 45 45 45 45 45 45 45 45 45 45 45 45 46 46 46 47 48 49 49
75 73 72 70 69 67 66 64 64 63 63 62 62 61 61 60 59 58 56 55 53 51 51 51 50 50 50 49 48 48 47 47 46 46 46 45 45 46 46 46 46 46 46 46 46 46 46 47 47 48 49 49
75 74 73 72 70 68 67 65 64 64 64 63 63 63 62 61 60 59 58 56 55 53 52 51 51 51 50 50 49 48 48 48 47 47 46 46 46 46 46 47 47 47 47 47 47 47 47 48 48 49 49 50
76 75 74 73 71 69 68 66 65 65 64 64 64 64 63 62 61 60 59 58 57 55 53 52 52 52 51 50 50 49 49 48 48 48 47 47 47 47 47 47 48 48 48 48 48 48 48 49 49 50 50 50
78 76 74 73 72 71 69 67 66 66 65 65 65 65 64 63 63 62 61 59 58 56 55 53 53 53 52 51 51 50 50 49 49 48 48 48 48 48 48 48 48 49 49 49 49 49 50 50 50 50 51 51
79 77 75 74 73 72 71 69 68 67 67 66 66 66 65 64 64 63 62 60 59 58 57 55 54 54 53 53 52 51 51 50 50 49 49 48 48 49 49 49 49 49 49 50 50 50 51 51 51 52 52 52
80 78 77 75 74 73 71 70 69 68 68 67 67 67 66 65 65 64 62 61 61 59 58 57 56 55 54 54 53 53 52 52 51 50 50 49 49 49 50 50 49 49 50 50 51 51 52 52 52 52 53 53
81 79 78 76 75 74 72 71 70 69 69 69 68 68 67 66 66 65 63 63 62 61 60 59 58 57 56 55 55 54 54 53 52 52 51 51 50 50 50 50 50 50 50 51 52 52 53 53 53 53 54 54
83 81 79 77 76 74 73 72 71 70 70 69 69 69 68 67 67 66 65 64 63 62 61 60 60 59 58 57 56 56 55 55 54 53 53 52 52 51 51 51 51 51 51 52 53 53 54 54 54 55 55 56
84 83 81 79 77 76 74 73 72 71 71 70 70 70 69 68 68 67 66 65 64 64 62 62 61 61 60 59 58 58 57 56 55 54 54 53 53 53 52 51 51 52 53 53 54 54 54 55 56 56 57 57
85 84 82 80 78 77 76 74 73 73 72 71 71 71 70 70 69 68 67 66 66 65 64 63 62 61 61 60 60 60 59 58 57 56 55 55 54 54 53 53 53 54 55 55 54 55 55 56 57 58 58 59
86 85 83 81 79 78 77 76 75 74 73 72 72 72 71 71 70 69 68 67 67 66 65 64 62 62 61 61 61 61 61 60 59 58 57 57 56 56 55 56 56 56 56 56 55 55 56 57 57 58 59 60
87 86 84 82 80 79 78 77 76 75 74 73 73 73 72 72 71 70 69 68 68 67 66 65 63 63 62 62 62 62 62 62 61 60 59 58 58 58 58 58 58 58 57 57 56 57 57 58 58 59 60 61
88 87 85 83 81 80 79 78 77 76 75 74 74 73 73 73 72 71 70 70 69 68 67 66 65 64 64 64 63 63 62 62 62 62 61 60 60 61 61 61 60 60 59 58 59 59 59 59 59 60 61 62
88 87 86 85 83 82 80 79 78 77 76 75 75 74 74 74 73 72 72 71 70 69 68 67 67 66 66 65 64 64 63 62 62 62 62 62 63 63 63 63 62 61 61 61 62 62 61 61 61 62 62 63
89 88 87 86 85 84 82 80 79 78 77 76 76 75 75 75 74 74 73 73 72 71 70 69 69 68 67 66 65 64 63 63 63 64 65 65 64 64 64 64 64 63 64 64 64 64 64 64 64 64 64 64
90 89 88 87 86 85 83 82 80 79 78 77 77 76 76 76 76 75 75 74 73 72 71 71 70 69 68 67 66 65 64 65 66 67 67 67 66 66 65 65 65 66 66 67 67 67 66 67 67 67 67 67
91 90 89 88 87 85 84 83 82 80 79 78 77 77 77 77 77 76 75 74 73 73 72 72 71 70 69 68 68 68 68 68 69 70 69 68 67 67 67 67 68 68 69 69 69 69 69 69 69 69 69 69
92 91 90 88 87 86 85 84 82 81 80 79 78 77 77 77 77 76 75 75 74 74 74 74 73 73 72 71 71 71 71 71 71 71 71 70 69 69 69 70 70 70 71 71 71 71 71 71 71 72 72 72
91 90 89 88 87 86 86 84 83 82 81 80 78 77 77 77 77 76 76 77 77 77 77 76 76 75 75 74 73 73 73 73 73 73 73 72 71 71 72 73 73 73 73 73 73 73 73 74 74 74 75 74
91 89 88 87 86 86 86 85 85 84 82 81 79 78 78 78 77 77 78 78 78 79 79 78 78 78 77 76 75 75 75 75 76 75 75 74 73 73 74 75 75 75 75 75 75 75 75 76 76 76 76 76
92 90 88 87 87 87 87 86 85 85 83 82 81 80 79 78 78 78 79 80 80 80 80 80 80 80 79 79 78 78 78 78 78 77 77 76 75 75 76 76 77 77 77 77 78 78 77 78 78 78 77 77
Wind_Direction
253 254 255 256 257 258 259 260 261 262 263 264 264 265 264 263 262 261 261 262 261 261 261 261 262 264 265 267 269 271 273 275 277 278 280 282 284 286 288 289 291 291 292 292 292 291 290 289 287 287 286 286
252 253 254 255 256 257 257 258 259 260 262 263 263 264 263 262 261 260 261 261 261 261 261 262 262 264 265 267 269 270 273 275 276 278 280 282 283 285 287 288 290 291 291 291 291 290 289 288 287 286 285 284
251 252 253 254 254 255 256 257 258 259 260 262 263 263 263 261 260 260 261 261 261 261 261 262 263 264 266 267 268 270 272 274 276 278 279 281 283 284 286 287 289 290 290 291 290 290 289 288 287 286 285 284
250 251 251 252 253 254 255 256 257 258 259 261 262 263 263 261 260 260 260 261 261 261 262 263 264 265 266 267 269 270 272 274 276 277 279 281 282 283 285 287 288 289 290 290 290 290 289 288 287 286 285 284
248 249 250 251 251 252 253 254 255 257 258 260 261 262 262 261 260 260 260 261 261 262 262 263 264 265 267 268 269 270 272 274 276 277 279 280 282 283 284 285 287 288 289 290 290 290 289 288 287 286 285 284
247 248 249 249 250 251 252 253 254 256 257 259 260 261 262 261 260 260 260 261 261 262 263 264 264 265 267 268 269 271 272 274 275 277 279 280 281 282 283 284 285 286 287 288 288 288 288 288 287 286 286 285
246 247 248 248 249 250 251 252 253 254 256 258 260 261 261 261 261 260 259 260 261 262 263 264 265 266 267 268 270 271 273 274 276 277 279 280 281 282 283 284 285 285 286 287 288 288 288 288 288 287 287 286
245 246 246 247 248 249 250 251 252 253 255 257 258 260 261 261 261 260 259 260 261 262 263 264 265 266 267 269 270 272 273 275 276 278 279 280 281 282 283 283 284 285 287 288 289 289 289 289 289 289 288 288
244 245 246 247 247 248 249 250 251 252 254 255 257 259 260 261 261 260 260 259 260 262 263 264 265 267 268 269 270 272 273 275 276 278 279 280 281 282 283 283 284 285 287 287 288 289 290 290 290 290 289 288
244 245 246 246 247 247 248 249 250 251 253 254 256 258 259 260 261 261 261 260 260 262 263 264 265 267 268 270 271 272 274 275 276 277 279 280 281 282 283 283 284 285 286 286 287 288 289 289 289 289 289 288
243 244 245 246 247 247 247 248 249 250 252 253 255 256 258 259 260 261 261 261 261 262 263 264 265 267 268 270 271 273 274 275 276 277 278 279 281 282 282 283 284 284 285 286 287 287 288 288 288 288 288 287
243 244 245 246 246 247 247 247 248 249 251 252 254 256 257 259 260 261 262 262 262 262 263 265 266 267 268 270 271 273 274 276 277 278 279 279 280 281 282 283 284 284 285 286 286 287 287 288 288 288 288 287
242 243 244 245 246 247 247 247 248 249 250 251 253 255 256 258 259 260 261 262 262 263 264 265 266 267 268 270 271 273 274 275 276 278 279 280 281 281 282 283 283 284 285 286 286 287 287 287 288 288 288 288
240 241 243 244 245 246 247 247 247 248 249 250 252 254 255 257 259 260 261 262 263 263 264 265 266 267 269 270 271 272 274 275 276 277 279 280 281 281 282 282 283 284 285 285 286 287 287 287 287 288 288 288
240 240 242 243 244 245 246 247 247 248 248 250 251 253 254 256 258 259 261 262 263 264 265 265 266 267 269 270 271 272 273 274 275 277 278 279 280 281 282 282 283 283 284 285 286 286 287 287 287 287 288 288
239 240 241 242 243 244 245 246 246 247 248 249 250 252 254 255 257 259 260 262 263 264 265 266 267 268 269 270 271 272 273 274 275 277 278 279 280 281 281 282 282 283 284 285 286 287 287 287 287 287 287 288
238 239 240 241 242 243 244 245 246 246 247 249 250 251 253 254 256 258 259 261 263 264 265 266 267 268 269 270 271 272 273 274 275 277 278 279 280 281 281 281 282 283 284 285 286 287 287 287 287 287 287 287
238 239 240 240 241 242 243 244 245 245 246 248 249 251 252 254 255 257 259 260 262 263 265 266 267 268 269 270 270 272 273 274 275 277 278 279 280 280 280 281 282 283 284 285 286 286 286 286 286 286 286 286
238 239 240 240 241 242 243 243 244 245 246 247 248 250 252 253 255 256 258 260 261 263 264 265 267 268 269 270 271 271 272 274 275 277 278 279 279 279 280 280 281 282 284 284 285 286 286 286 285 285 285 285
239 240 240 241 241 242 243 243 244 244 245 246 248 249 251 253 254 256 257 259 260 262 263 265 266 268 269 270 271 272 273 274 275 277 278 278 279 279 280 280 281 282 283 284 285 286 286 286 285 285 284 285
238 239 241 241 242 243 243 244 244 245 245 246 247 249 250 252 254 255 257 258 260 261 262 264 265 267 268 269 271 272 273 275 276 277 278 278 279 279 280 281 282 283 284 285 287 287 287 286 286 285 285 285
237 239 240 241 242 243 244 244 245 245 245 246 247 248 250 252 253 255 256 257 259 260 261 262 264 265 266 268 270 271 274 275 277 277 278 278 279 279 280 281 282 283 284 286 287 288 288 288 287 286 286 285
237 238 239 240 241 242 243 244 245 245 246 246 247 248 249 251 252 254 255 256 257 258 260 261 262 264 265 267 269 271 273 275 276 277 278 278 279 280 281 282 283 284 285 286 287 287 288 289 289 288 287 286
237 238 239 240 240 241 242 244 245 245 246 246 246 247 248 250 251 253 254 255 256 257 259 260 262 264 266 267 269 271 273 274 275 275 276 276 278 279 281 282 283 284 285 286 286 287 289 289 290 290 289 289
236 237 239 240 240 241 242 243 244 245 246 246 246 247 248 249 250 252 253 254 256 257 259 261 262 264 266 267 269 270 271 272 272 272 273 275 276 279 280 281 282 283 284 285 286 288 289 290 290 291 291 291
235 237 238 239 240 241 242 243 244 245 246 247 247 247 248 249 250 252 253 255 257 258 260 261 262 264 265 266 267 268 268 268 269 270 272 274 276 278 279 279 279 281 283 284 286 287 289 289 290 291 292 292
235 236 237 239 240 241 242 243 245 246 247 247 248 248 249 250 251 253 254 256 257 259 260 260 261 262 263 263 264 265 265 266 267 269 272 274 275 276 276 276 278 280 281 283 285 286 287 288 289 290 292 293
235 236 237 239 240 242 242 244 245 246 247 248 248 249 250 251 253 254 255 256 257 257 258 259 259 260 261 262 263 264 265 266 267 269 271 272 273 274 274 275 277 279 281 282 284 285 286 287 288 290 292 293
235 236 238 240 241 243 243 244 245 246 247 248 249 250 251 252 252 253 254 254 255 256 256 257 258 259 261 262 263 264 265 266 267 268 269 270 272 273 274 275 277 278 280 281 282 283 284 286 288 290 291 291
234 235 237 239 241 243 244 245 246 246 247 248 249 249 250 251 251 252 253 254 255 256 256 257 258 259 260 261 262 263 264 265 266 267 268 270 271 272 274 275 277 278 279 280 281 282 283 286 287 289 290 290
235 234 235 238 240 242 243 244 246 246 247 248 248 249 249 250 251 252 253 254 255 255 256 257 258 259 260 261 262 263 263 264 265 267 268 270 271 272 274 275 276 277 278 279 279 281 283 285 286 287 288 288